SBI1007 UUDD-ULLI

Flight info

Callsign SBI1007
Flight time N/A
Altitude 34000
Route SUNUN4M SUNUN M869 RAVKA N50 NUDKO T561 ODATI T875 GENPA GENPA1V
Aircraft A321/M-SDE3FGHIRWY/LB1

Departure

Time 2026-05-07 19:57
Airport Domodedovo International Airport (UUDD)

Arrival

Time N/A
Airport Pulkovo Airport (ULLI)
Time Latitude Longitude Altitude Speed Heading
2026-05-07 19:02 55.41137 37.89630 578 ft 0 kts 55°
2026-05-07 19:50 55.41137 37.89631 551 ft 0 kts 55°
2026-05-07 19:50 55.41148 37.89666 582 ft 6 kts 71°
2026-05-07 19:50 55.41120 37.89743 577 ft 10 kts 142°
2026-05-07 19:50 55.41046 37.89836 573 ft 13 kts 145°
2026-05-07 19:51 55.40995 37.89858 569 ft 7 kts 204°
2026-05-07 19:51 55.40953 37.89767 569 ft 12 kts 234°
2026-05-07 19:51 55.40903 37.89636 571 ft 13 kts 237°
2026-05-07 19:51 55.40845 37.89516 576 ft 13 kts 224°
2026-05-07 19:52 55.40789 37.89384 570 ft 14 kts 234°
2026-05-07 19:52 55.40731 37.89270 573 ft 11 kts 199°
2026-05-07 19:52 55.40653 37.89326 568 ft 13 kts 147°
2026-05-07 19:52 55.40570 37.89426 566 ft 16 kts 145°
2026-05-07 19:53 55.40474 37.89543 573 ft 18 kts 146°
2026-05-07 19:53 55.40369 37.89669 569 ft 20 kts 145°
2026-05-07 19:53 55.40252 37.89811 562 ft 21 kts 145°
2026-05-07 19:53 55.40126 37.89962 560 ft 23 kts 146°
2026-05-07 19:54 55.39991 37.90123 558 ft 23 kts 146°
2026-05-07 19:54 55.39857 37.90284 549 ft 22 kts 146°
2026-05-07 19:54 55.39737 37.90429 547 ft 19 kts 146°
2026-05-07 19:54 55.39639 37.90538 545 ft 12 kts 163°
2026-05-07 19:55 55.39570 37.90458 547 ft 13 kts 234°
2026-05-07 19:55 55.39538 37.90329 542 ft 8 kts 274°
2026-05-07 19:55 55.39574 37.90263 543 ft 4 kts 325°
2026-05-07 19:55 55.39576 37.90261 543 ft 0 kts 325°
2026-05-07 19:56 55.39585 37.90251 543 ft 8 kts 325°
2026-05-07 19:56 55.39782 37.90012 550 ft 69 kts 326°
2026-05-07 19:56 55.40362 37.89317 566 ft 131 kts 326°
2026-05-07 19:56 55.41260 37.88235 635 ft 175 kts 325°
2026-05-07 19:57 55.42214 37.86999 1378 ft 169 kts 316°
2026-05-07 19:57 55.43028 37.85514 2007 ft 168 kts 309°
2026-05-07 19:57 55.43806 37.83953 2418 ft 176 kts 307°
2026-05-07 19:57 55.44651 37.82219 2599 ft 197 kts 307°
2026-05-07 19:58 55.45591 37.80295 2777 ft 216 kts 308°
2026-05-07 19:58 55.46626 37.78370 3199 ft 224 kts 319°
2026-05-07 19:58 55.48044 37.77093 3511 ft 240 kts 336°
2026-05-07 19:58 55.49672 37.76045 3827 ft 255 kts 337°
2026-05-07 19:59 55.51374 37.75028 3992 ft 259 kts 343°
2026-05-07 19:59 55.53176 37.74978 4002 ft 265 kts 12°
2026-05-07 19:59 55.54916 37.76378 4204 ft 284 kts 30°
2026-05-07 19:59 55.56637 37.78191 4775 ft 291 kts 29°
2026-05-07 20:00 55.58399 37.80011 5380 ft 296 kts 28°
2026-05-07 20:00 55.60194 37.81852 5988 ft 301 kts 28°
2026-05-07 20:00 55.62013 37.83720 6615 ft 304 kts 28°
2026-05-07 20:00 55.63871 37.85566 6913 ft 306 kts 21°
2026-05-07 20:01 55.65881 37.86653 7003 ft 301 kts
2026-05-07 20:01 55.67960 37.86741 7596 ft 299 kts 354°
2026-05-07 20:01 55.70042 37.86685 8275 ft 300 kts 354°
2026-05-07 20:01 55.72137 37.86651 8937 ft 302 kts 355°
2026-05-07 20:02 55.74245 37.86628 9598 ft 304 kts 354°
2026-05-07 20:02 55.76339 37.86603 10201 ft 305 kts 354°
2026-05-07 20:02 55.78471 37.86576 10806 ft 307 kts 354°
2026-05-07 20:02 55.80642 37.86546 11408 ft 309 kts 354°
2026-05-07 20:03 55.82771 37.86498 11981 ft 310 kts 351°
2026-05-07 20:03 55.84869 37.85825 12552 ft 304 kts 335°
2026-05-07 20:03 55.86780 37.84255 12856 ft 303 kts 321°
2026-05-07 20:03 55.88404 37.81814 13061 ft 309 kts 306°
2026-05-07 20:04 55.89712 37.78756 13538 ft 312 kts 301°
2026-05-07 20:04 55.90950 37.75572 13835 ft 312 kts 295°
2026-05-07 20:04 55.91829 37.72077 13954 ft 309 kts 283°
2026-05-07 20:04 55.92299 37.68356 14497 ft 308 kts 278°
2026-05-07 20:05 55.92711 37.64597 14838 ft 309 kts 278°
2026-05-07 20:05 55.93126 37.60848 14891 ft 308 kts 278°
2026-05-07 20:05 55.93541 37.57107 14895 ft 307 kts 278°
2026-05-07 20:05 55.93957 37.53373 14895 ft 307 kts 279°
2026-05-07 20:06 55.94575 37.49711 14893 ft 309 kts 286°
2026-05-07 20:06 55.95296 37.46092 14893 ft 310 kts 286°
2026-05-07 20:06 55.96010 37.42470 14892 ft 309 kts 286°
2026-05-07 20:06 55.96722 37.38848 14893 ft 309 kts 286°
2026-05-07 20:07 55.97431 37.35222 14893 ft 309 kts 286°
2026-05-07 20:07 55.98078 37.31568 14893 ft 307 kts 280°
2026-05-07 20:07 55.98580 37.27852 14892 ft 308 kts 281°
2026-05-07 20:07 55.99088 37.24142 14892 ft 308 kts 281°
2026-05-07 20:08 55.99427 37.21681 14896 ft 308 kts 281°
2026-05-07 20:08 55.99938 37.17967 14894 ft 308 kts 281°
2026-05-07 20:08 56.00447 37.14257 14893 ft 308 kts 281°
2026-05-07 20:08 56.01117 37.09341 14907 ft 307 kts 280°
2026-05-07 20:09 56.01623 37.05629 14896 ft 307 kts 280°
2026-05-07 20:09 56.01964 37.03123 14894 ft 307 kts 280°
2026-05-07 20:09 56.02471 36.99409 14894 ft 307 kts 280°
2026-05-07 20:10 56.03472 36.91981 14897 ft 307 kts 280°
2026-05-07 20:10 56.03969 36.88272 14895 ft 307 kts 280°
2026-05-07 20:10 56.04465 36.84555 14896 ft 307 kts 280°
2026-05-07 20:10 56.04964 36.80841 14896 ft 307 kts 280°
2026-05-07 20:11 56.05462 36.77128 14898 ft 307 kts 280°
2026-05-07 20:11 56.05957 36.73418 14899 ft 307 kts 280°
2026-05-07 20:11 56.06449 36.69703 14898 ft 307 kts 280°
2026-05-07 20:11 56.06940 36.65979 14898 ft 307 kts 280°
2026-05-07 20:12 56.07430 36.62259 14896 ft 307 kts 280°
2026-05-07 20:12 56.07910 36.58588 14898 ft 307 kts 280°
2026-05-07 20:12 56.08398 36.54865 14898 ft 307 kts 280°
2026-05-07 20:12 56.08885 36.51139 14904 ft 308 kts 280°
2026-05-07 20:13 56.09425 36.47344 15035 ft 323 kts 281°
2026-05-07 20:13 56.10040 36.43376 15177 ft 337 kts 282°
2026-05-07 20:13 56.10695 36.39296 15549 ft 343 kts 283°
2026-05-07 20:13 56.11362 36.35166 16023 ft 346 kts 283°
2026-05-07 20:14 56.12030 36.31005 16510 ft 349 kts 283°
2026-05-07 20:14 56.12694 36.26811 16994 ft 351 kts 283°
2026-05-07 20:14 56.13352 36.22590 17478 ft 353 kts 282°
2026-05-07 20:14 56.14008 36.18337 17947 ft 356 kts 282°
2026-05-07 20:15 56.14673 36.14045 18394 ft 358 kts 284°
2026-05-07 20:15 56.15602 36.09865 18783 ft 364 kts 292°
2026-05-07 20:15 56.16710 36.05771 19182 ft 366 kts 292°
2026-05-07 20:15 56.17819 36.01656 19565 ft 368 kts 292°
2026-05-07 20:16 56.18932 35.97505 19954 ft 370 kts 292°
2026-05-07 20:16 56.20143 35.93412 20334 ft 375 kts 299°
2026-05-07 20:16 56.21773 35.89696 20720 ft 383 kts 309°
2026-05-07 20:16 56.23807 35.86542 21091 ft 390 kts 319°
2026-05-07 20:17 56.26001 35.83641 21459 ft 392 kts 319°
2026-05-07 20:17 56.28205 35.80720 21834 ft 394 kts 318°
2026-05-07 20:17 56.30417 35.77775 22208 ft 396 kts 318°
2026-05-07 20:17 56.32633 35.74809 22578 ft 398 kts 318°